Regional Weather Roundup
Issued by NWS Upton, NY

Current Version | Previous Version | Graphics & Text | Print | Product List | Glossary Off
Versions: 1 2 3 4 5 6 7 8 9 10 11 12 13 14 15 16 17 18 19 20 21 22 23 24 25 26 27 28 29 30 31 32 33 34 35 36 37 38 39 40 41 42 43 44 45 46 47 48 49 50

000
ASUS41 KOKX 211605
RWROKX

Regional Weather Roundup
National Weather Service New York NY
1100 AM EST WED FEB 21 2018

Note: "FAIR" indicates few or no clouds below 12,000 feet with no
significant weather and/or obstructions to visibility.

NYZ071-072-176-178-NJZ106-104-211700-
New York City Metro Area

CITY           SKY/WX    TMP DP  RH WIND       PRES   REMARKS
Central Park   FAIR      67  58  72 W9        30.29F
Bronx Bot Gard   N/A     66  55  68 SW22      30.29S
Bronx Lehman C   N/A     66  57  72 SW10        N/A
LaGuardia Arpt PTSUNNY   68  58  70 SW15      30.27F
Queens College   N/A     64  59  82 SW7         N/A
Kennedy Intl   PTSUNNY   54  53  97 S9        30.31F
Breezy Point     N/A     55 N/A N/A W8          N/A
Brooklyn Coll    N/A     66  59  77 SW10        N/A
Staten Island    N/A     68  59  73 SW10        N/A
Newark/Liberty PTSUNNY   70  59  68 SW17      30.27F
Teterboro      FAIR      69  59  70 W12       30.26F
$$

NYZ177-179-078>081-211700-
Long Island New York

CITY           SKY/WX    TMP DP  RH WIND       PRES   REMARKS
Jones Beach      N/A     46 N/A N/A SW10G17     N/A
Wantagh          N/A     50  50 100 SW7         N/A
Hempstead        N/A     55  55 100 SE5       30.33F
Matinecock Pt    N/A     63 N/A N/A SW16        N/A
Farmingdale    CLOUDY    54  54 100 SW8       30.30F
MacArthur/ISP  FOG       52  52 100 SW12      30.30F VSB 1/4
Shirley        CLOUDY    51  51 100 SW12      30.30F FOG
Mt Sinai Harb    N/A    N/A N/A N/A SW5G10      N/A
Westhampton    CLOUDY    50  50 100 SW12      30.31F FOG
East Hampton   CLOUDY    49  49  99 SW8       30.31S FOG
Southold         N/A     52  52 100 S10         N/A
Montauk          N/A     51  51 100 SW8       30.32S
$$

NYZ052-065-067-211700-
Hudson Valley

CITY           SKY/WX    TMP DP  RH WIND       PRES   REMARKS
White Plains   PTSUNNY   65  58  78 W10G17    30.26F
Larchmont Harb   N/A     55 N/A N/A S14         N/A
Croton On Huds   N/A     63 N/A N/A SE7         N/A
Somers           N/A     64  57  77 S13         N/A
Brewster         N/A     64  55  72 S5          N/A
Newburgh       MOSUNNY   64  59  82 W8        30.25F
Montgomery     CLOUDY    63  57  81 SW20      30.22F
Otisville        N/A     63  55  77 SW7         N/A
Warwick          N/A     66  57  72 W12         N/A
Suffern          N/A     66  57  72 SW7         N/A
Poughkeepsie   FAIR      66  56  70 SW9       30.22F
Albany         PTSUNNY   63  54  72 S16       30.14F
$$

NJZ001-105-106-008-010-013-015-019>022-104-211700-
New Jersey

CITY           SKY/WX    TMP DP  RH WIND       PRES   REMARKS
Newark/Liberty PTSUNNY   70  59  68 SW17      30.27F
Teterboro      FAIR      69  59  70 W12       30.26F
Caldwell       FAIR      68  58  70 W8        30.27F
Somerville     FAIR      70  60  70 VRB6      30.26F
Linden         FAIR      68  59  72 W8G21     30.28F
Perth Amboy      N/A     64 N/A N/A SW18G25     N/A
Sussex         CLOUDY    62  58  86 SW12G18   30.26F
Andover          N/A     64  57  78 S10G17    30.27F
Trenton        PTSUNNY   67  60  78 SW14      30.30F
Millville      PTSUNNY   69  61  75 SW12G30   30.36S
Atlantic City  PTSUNNY   69  63  81 SW17G26   30.34F
Wrightstown    FAIR      73  61  66 W17       30.28F
Toms River     PTSUNNY   71  62  73 SW17G30   30.32F
Belmar         CLOUDY    70  61  73 SW15G24   30.32
$$

PAZ047>061-062-071-211700-
Eastern Pennsylvania

CITY           SKY/WX    TMP DP  RH WIND       PRES   REMARKS
Philadelphia   MOSUNNY   67  60  78 SW13      30.32F
Allentown      FAIR      64  56  75 W7        30.29S
Scranton       FAIR      68  55  63 SW10      30.24F
$$

CTZ002-004>006-009-010-012-RIZ004-006-007-MAZ004-011-015-211700-
Southern New England

 In CT

CITY           SKY/WX    TMP DP  RH WIND       PRES   REMARKS
Bradley Intl   PTSUNNY   67  57  70 S14       30.22F
Hartford       CLOUDY    62  56  80 S10G17    30.24F
Danbury        FAIR      66  57  72 SW13G18   30.25F
Wtrbury/Oxford PTSUNNY   60  57  89 S8        30.26F
Norwalk Harbor   N/A     50 N/A N/A S7          N/A
Bridgeport     FOG       53  52  96 W5        30.27F VSB 1
Meriden        CLOUDY    56  53  90 S9        30.26F
New Haven      FOG       51  49  92 W7        30.27F VSB 1/4
Chester        FOG       55  55 100 SW9       30.28S VSB<1/4
Groton         FOG       48  47  96 S5        30.29S VSB<1/4
Willimantic    CLOUDY    62  56  80 SW10      30.25F

 In RI

CITY           SKY/WX    TMP DP  RH WIND       PRES   REMARKS
Providence     CLOUDY    61  58  90 SW17G26   30.26F
Block Island   LGT RAIN  46  46 100 SW16G24   30.31F VSB 1/4
Westerly       FOG       49  49 100 SW9       30.30S VSB<1/4

In MA

CITY           SKY/WX    TMP DP  RH WIND       PRES   REMARKS
Boston         PTSUNNY   65  56  72 SW21G28   30.18F
Worcester      CLOUDY    57  55  93 SW14G23   30.21F
Westfield      FAIR      68  57  68 S14       30.19F
Provincetown   FOG       46  46 100 SW22      30.23S VSB 3/4
Nantucket      FOG       47  47 100 SW14      30.32F VSB 1/4
$$

ANZ330-335-338-340-345-350-353-355-211700-
Coastal Marine Observations


STATION/POSITION TIME  SKY/WX   TEMP    WIND        PRES    VSBY  WAVE
                                AIR SEA DIR/SP/G                  HT/PER
                 (UTC)          (F)     (DEG/KT/KT) (MB)    (MI)  (FT/S)
NY Harb Entrance 1450            45 41  200/ 14/ 16 1025.9          4/ 5
20 S Fire Island 1550            47 42  220/ 14/ 16 1026.7          5/ 6
15 E Barnegat Li 1530               41                N/A           4/ 5
Hudson Canyon    1550            51 47  210/ 17/ 19 1027.9          5/ 5
Kings Point      1542            62 38  270/ 13/ 17 1026.4
Execution Rocks  NOT AVBL
Western LI Sound NOT AVBL
Central LI Sound 1500            45     220/  4/  6   N/A           1
Robbins Reef     1542            65     250/ 16/ 19 1026.1
$$


>>>>>>>>>>>>>>>>>>>>>>>>>>>> KEY <<<<<<<<<<<<<<<<<<<<<<<<<<<
>                                                          <
>     SKY/WX - Sky Condition/Present Weather               <
>     TMP    - Temperature in Fahrenheit                   <
>     DP     - Dew Point in Fahrenheit                     <
>     RH     - Relative Humidity in Percent                <
>     WIND   - Direction (from) and Speed in MPH           <
>     PRES   - Mean Sea Level Pressure (inches of Hg)      <
>     WCI    - Wind Chill Index                            <
>     VSB    - Visibility in Miles                         <
>     HX     - Heat Index                                  <
>     TC     - Temperature in Celsius                      <
>     VRB    - Varibale Wind Direction                     <
>                                                          <
>>>>>>>>>>>>>>>>>>>>>>>>>>>> KEY <<<<<<<<<<<<<<<<<<<<<<<<<<<



USA.gov is the U.S. government's official web portal to all federal, state and local government web resources and services.